TV
NORAD ID: 28089
Int'l Code: 2003-053A
Perigee: 35,781.5 km
Apogee: 35,804.2 km
Inclination: 0.0 °
Period: 1,436.1 minutes
Semi major axis: 42163 km
Launch date: November 24, 2003
Source: Commonwealth of Independent States (former USSR) (CIS)
Comments: 18 C-band; provide communications for gas corporation operations throughout Eurasian continent.
Two Line Element Set (TLE):
1 28089U 03053A 13142.83101698 .00000121 00000-0 10000-3 0 7665
2 28089 000.0060 262.3168 0002692 159.8738 166.5825 01.00275046 34839
Source: AFSPC
NASA's NSSDC Master Catalog entry for YAMAL 202